Location: Saint-Maurice-d�Ard�che
(44.5216°N, 4.4002°E)
Time: 14:49:05
(UTC+00:00)

STARLINK-1110 - Pass Details

Date: 30 March 2020
Orbit: 548 x 551 km, 53.0° (Epoch: 28 May)

Event Time Altitude Azimuth Distance (km) Brightness Sun altitude
Rises 19:12:01 0° 303° (WNW) 2,728 8.9 -12.0°
Reaches altitude 10° 19:14:16 10° 302° (WNW) 1,831 7.7 -12.4°
Maximum altitude 19:18:25 78° 216° (SW) 567 3.7 -13.1°
Enters shadow 19:21:12 20° 132° (SE) 1,293 4.9 -13.5°
